This is the latest recevied weather packets stored in our database for station/object AD8BV. If no packets are shown the sender has not sent any weather packets the latest 1 day(s).
| Time | Temp. | Humidity | Pressure | Rain* | Wind** | Luminosity | Snow |
|---|---|---|---|---|---|---|---|
| 1778016523 | 12.22° C | 53% | 1009.3 hPa | 0 mm | 1.34 m/s, 321° | 121 W/m² | - |
| 1778016220 | 12.22° C | 52% | 1009.3 hPa | 0 mm | 0.89 m/s, 286° | 129 W/m² | - |
| 1778015916 | 12.22° C | 51% | 1009.7 hPa | 0 mm | 0.89 m/s, 306° | 135 W/m² | - |
| 1778015614 | 11.67° C | 50% | 1009.7 hPa | 0 mm | 0.89 m/s, 287° | 104 W/m² | - |
| 1778015310 | 11.67° C | 52% | 1009.6 hPa | 0 mm | 0.45 m/s, 324° | 77 W/m² | - |
| 1778015007 | 11.67° C | 51% | 1009.5 hPa | 0 mm | 0.89 m/s, 272° | 85 W/m² | - |
| 1778014704 | 11.67° C | 50% | 1009.6 hPa | 0 mm | 0.89 m/s, 292° | 100 W/m² | - |
| 1778014402 | 11.67° C | 52% | 1009.7 hPa | 0 mm | 0.89 m/s, 304° | 104 W/m² | - |
| 1778014099 | 11.67° C | 53% | 1009.7 hPa | 0 mm | 0.89 m/s, 233° | 105 W/m² | - |
| 1778013797 | 11.67° C | 52% | 1009.6 hPa | 0 mm | 0.45 m/s, 250° | 114 W/m² | - |
| 1778013494 | 11.67° C | 53% | 1010.1 hPa | 0 mm | 0 m/s | 106 W/m² | - |
| 1778013190 | 11.67° C | 51% | 1009.7 hPa | 0 mm | 0.45 m/s, 267° | 96 W/m² | - |
| 1778012886 | 12.22° C | 53% | 1009.7 hPa | 0 mm | 0 m/s | 94 W/m² | - |
| 1778012583 | 12.22° C | 53% | 1009.7 hPa | 0 mm | 0.45 m/s, 254° | 124 W/m² | - |
| 1778012280 | 12.22° C | 51% | 1009.8 hPa | 0 mm | 0.89 m/s, 164° | 158 W/m² | - |
| 1778011977 | 12.22° C | 52% | 1010 hPa | 0 mm | 1.79 m/s, 253° | 142 W/m² | - |
| 1778011675 | 12.78° C | 56% | 1009.7 hPa | 0 mm | 0.45 m/s, 291° | 154 W/m² | - |
| 1778011372 | 12.78° C | 53% | 1009.6 hPa | 0 mm | 0.89 m/s, 259° | 134 W/m² | - |
| 1778011067 | 12.78° C | 53% | 1009.7 hPa | 0 mm | 0.45 m/s, 301° | 166 W/m² | - |
| 1778010765 | 12.78° C | 55% | 1009.5 hPa | 0 mm | 0.89 m/s, 296° | 190 W/m² | - |
| 1778010462 | 12.78° C | 58% | 1009.7 hPa | 0 mm | 0.45 m/s, 270° | 207 W/m² | - |
| 1778010159 | 12.22° C | 56% | 1009.4 hPa | 0 mm | 0.45 m/s, 249° | 249 W/m² | - |
| 1778009854 | 12.22° C | 56% | 1009.6 hPa | 0 mm | 0.89 m/s, 183° | 184 W/m² | - |
| 1778009552 | 12.22° C | 58% | 1009.6 hPa | 0 mm | 0 m/s | 152 W/m² | - |
| 1778009250 | 12.22° C | 56% | 1009.9 hPa | 0 mm | 1.34 m/s, 269° | 108 W/m² | - |
* Rain latest hour (hover to see other rain measurements)
** Current wind speed in m/s (hover to see current wind gust speed)